Time,TemperatureF,DewpointF,PressureIn,WindDirection,WindDirectionDegrees,WindSpeedMPH,WindSpeedGustMPH,Humidity,HourlyPrecipIn,Conditions,Clouds,dailyrainin,SolarRadiationWatts/m^2,SoftwareType,DateUTC
2013-04-02 00:05:00,32.6,17.0,30.19,NNW,344,0.0,0.0,53,0.00,,,0.00,0,weatherlink.com 1.10,2013-04-02 04:05:00,
2013-04-02 00:20:00,32.2,17.0,30.19,NNW,344,0.0,0.0,54,0.00,,,0.00,0,weatherlink.com 1.10,2013-04-02 04:20:00,
2013-04-02 00:35:00,31.7,17.0,30.19,NNW,344,0.0,0.0,55,0.00,,,0.00,0,weatherlink.com 1.10,2013-04-02 04:35:00,
2013-04-02 00:50:00,31.5,18.0,30.20,NNW,344,0.0,0.0,57,0.00,,,0.00,0,weatherlink.com 1.10,2013-04-02 04:50:00,
2013-04-02 01:05:00,31.2,17.0,30.20,North,5,0.0,2.0,57,0.00,,,0.00,0,weatherlink.com 1.10,2013-04-02 05:05:00,
2013-04-02 01:20:00,31.1,17.0,30.20,North,5,0.0,0.0,57,0.00,,,0.00,0,weatherlink.com 1.10,2013-04-02 05:20:00,
2013-04-02 01:35:00,30.8,17.0,30.21,North,5,0.0,0.0,58,0.00,,,0.00,0,weatherlink.com 1.10,2013-04-02 05:35:00,
2013-04-02 01:50:00,30.5,18.0,30.21,North,5,0.0,2.0,59,0.00,,,0.00,0,weatherlink.com 1.10,2013-04-02 05:50:00,
2013-04-02 02:05:00,30.3,17.0,30.21,North,5,0.0,0.0,59,0.00,,,0.00,0,weatherlink.com 1.10,2013-04-02 06:05:00,
2013-04-02 02:20:00,30.3,17.0,30.22,NNW,329,0.0,4.0,59,0.00,,,0.00,0,weatherlink.com 1.10,2013-04-02 06:20:00,
2013-04-02 02:35:00,29.9,17.0,30.22,NNW,329,0.0,0.0,59,0.00,,,0.00,0,weatherlink.com 1.10,2013-04-02 06:35:00,
2013-04-02 02:50:00,29.6,17.0,30.22,NNW,329,0.0,0.0,60,0.00,,,0.00,0,weatherlink.com 1.10,2013-04-02 06:50:00,
2013-04-02 03:05:00,29.3,17.0,30.22,NNW,329,0.0,0.0,60,0.00,,,0.00,0,weatherlink.com 1.10,2013-04-02 07:05:00,
2013-04-02 03:20:00,29.0,17.0,30.22,NNW,329,0.0,0.0,61,0.00,,,0.00,0,weatherlink.com 1.10,2013-04-02 07:20:00,
2013-04-02 03:35:00,28.7,17.0,30.22,NNW,329,0.0,0.0,61,0.00,,,0.00,0,weatherlink.com 1.10,2013-04-02 07:35:00,
2013-04-02 03:50:00,28.6,17.0,30.22,NNW,329,0.0,0.0,61,0.00,,,0.00,0,weatherlink.com 1.10,2013-04-02 07:50:00,
2013-04-02 04:05:00,28.3,17.0,30.22,NNW,329,0.0,2.0,63,0.00,,,0.00,0,weatherlink.com 1.10,2013-04-02 08:05:00,
2013-04-02 04:20:00,28.0,16.0,30.23,NNW,329,0.0,1.0,62,0.00,,,0.00,0,weatherlink.com 1.10,2013-04-02 08:20:00,
2013-04-02 04:35:00,27.6,17.0,30.23,NNW,329,1.0,1.0,64,0.00,,,0.00,0,weatherlink.com 1.10,2013-04-02 08:35:00,
2013-04-02 04:50:00,27.1,17.0,30.23,NNW,329,0.0,2.0,65,0.00,,,0.00,0,weatherlink.com 1.10,2013-04-02 08:50:00,
2013-04-02 05:05:00,26.9,17.0,30.24,NNW,329,0.0,0.0,66,0.00,,,0.00,0,weatherlink.com 1.10,2013-04-02 09:05:00,
2013-04-02 05:20:00,26.6,17.0,30.24,NNW,329,0.0,0.0,67,0.00,,,0.00,0,weatherlink.com 1.10,2013-04-02 09:20:00,
2013-04-02 05:36:00,26.3,17.0,30.25,NNW,329,2.0,2.0,67,0.00,,,0.00,0,weatherlink.com 1.10,2013-04-02 09:36:00,
2013-04-02 05:51:00,25.7,17.0,30.25,NNW,329,0.0,2.0,70,0.00,,,0.00,0,weatherlink.com 1.10,2013-04-02 09:51:00,
2013-04-02 06:06:00,25.9,17.0,30.26,NNW,329,0.0,2.0,69,0.00,,,0.00,0,weatherlink.com 1.10,2013-04-02 10:06:00,
2013-04-02 06:21:00,26.0,17.0,30.26,NNW,329,1.0,1.0,69,0.00,,,0.00,0,weatherlink.com 1.10,2013-04-02 10:21:00,
2013-04-02 06:36:00,25.8,17.0,30.26,NNW,329,0.0,2.0,69,0.00,,,0.00,0,weatherlink.com 1.10,2013-04-02 10:36:00,
2013-04-02 07:36:00,24.8,17.0,30.28,NNW,329,0.0,1.0,72,0.00,,,0.00,7,weatherlink.com 1.10,2013-04-02 11:36:00,
2013-04-02 07:51:00,24.8,17.0,30.29,NNW,329,0.0,2.0,72,0.00,,,0.00,16,weatherlink.com 1.10,2013-04-02 11:51:00,
2013-04-02 08:06:00,24.8,17.0,30.30,NNW,329,0.0,1.0,73,0.00,,,0.00,23,weatherlink.com 1.10,2013-04-02 12:06:00,
2013-04-02 08:21:00,25.2,18.0,30.31,NNW,329,0.0,0.0,74,0.00,,,0.00,32,weatherlink.com 1.10,2013-04-02 12:21:00,
2013-04-02 08:36:00,26.0,18.0,30.32,West,280,2.0,5.0,73,0.00,,,0.00,44,weatherlink.com 1.10,2013-04-02 12:36:00,
2013-04-02 08:51:00,27.5,20.0,30.32,WSW,244,2.0,5.0,72,0.00,,,0.00,130,weatherlink.com 1.10,2013-04-02 12:51:00,
2013-04-02 09:21:00,29.7,20.0,30.33,West,274,4.0,6.0,66,0.00,,,0.00,359,weatherlink.com 1.10,2013-04-02 13:21:00,
2013-04-02 09:36:00,30.6,20.0,30.34,WNW,299,1.0,5.0,65,0.00,,,0.00,410,weatherlink.com 1.10,2013-04-02 13:36:00,
2013-04-02 09:51:00,32.1,21.0,30.34,North,11,2.0,3.0,63,0.00,,,0.00,471,weatherlink.com 1.10,2013-04-02 13:51:00,
2013-04-02 10:06:00,33.4,21.0,30.34,ENE,72,1.0,4.0,60,0.00,,,0.00,529,weatherlink.com 1.10,2013-04-02 14:06:00,
2013-04-02 10:22:00,34.3,21.0,30.34,NNW,328,0.0,5.0,58,0.00,,,0.00,578,weatherlink.com 1.10,2013-04-02 14:22:00,
2013-04-02 10:37:00,35.4,19.0,30.34,ESE,120,2.0,5.0,52,0.00,,,0.00,635,weatherlink.com 1.10,2013-04-02 14:37:00,
2013-04-02 10:52:00,36.0,20.0,30.34,West,273,0.0,6.0,53,0.00,,,0.00,682,weatherlink.com 1.10,2013-04-02 14:52:00,
2013-04-02 11:07:00,36.2,19.0,30.34,NNW,346,1.0,6.0,49,0.00,,,0.00,726,weatherlink.com 1.10,2013-04-02 15:07:00,
2013-04-02 11:22:00,36.8,18.0,30.34,North,355,1.0,7.0,46,0.00,,,0.00,765,weatherlink.com 1.10,2013-04-02 15:22:00,
2013-04-02 11:52:00,37.2,18.0,30.34,WNW,300,1.0,8.0,45,0.00,,,0.00,835,weatherlink.com 1.10,2013-04-02 15:52:00,
2013-04-02 12:07:00,38.0,17.0,30.34,South,174,1.0,6.0,42,0.00,,,0.00,865,weatherlink.com 1.10,2013-04-02 16:07:00,
2013-04-02 12:22:00,39.0,17.0,30.33,WNW,299,4.0,13.0,41,0.00,,,0.00,888,weatherlink.com 1.10,2013-04-02 16:22:00,
2013-04-02 12:37:00,39.8,17.0,30.33,WSW,246,6.0,8.0,39,0.00,,,0.00,916,weatherlink.com 1.10,2013-04-02 16:37:00,
2013-04-02 12:52:00,41.4,18.0,30.32,North,5,2.0,6.0,39,0.00,,,0.00,933,weatherlink.com 1.10,2013-04-02 16:52:00,
2013-04-02 13:07:00,41.1,17.0,30.32,WNW,288,1.0,8.0,38,0.00,,,0.00,940,weatherlink.com 1.10,2013-04-02 17:07:00,
2013-04-02 13:22:00,42.0,17.0,30.31,NNW,347,0.0,6.0,37,0.00,,,0.00,953,weatherlink.com 1.10,2013-04-02 17:22:00,
2013-04-02 13:37:00,41.8,16.0,30.30,West,271,4.0,10.0,35,0.00,,,0.00,954,weatherlink.com 1.10,2013-04-02 17:37:00,
2013-04-02 13:52:00,42.3,16.0,30.30,West,275,4.0,7.0,35,0.00,,,0.00,958,weatherlink.com 1.10,2013-04-02 17:52:00,
2013-04-02 14:07:00,42.5,16.0,30.30,West,265,2.0,10.0,35,0.00,,,0.00,954,weatherlink.com 1.10,2013-04-02 18:07:00,
2013-04-02 14:22:00,43.1,17.0,30.29,WNW,288,4.0,10.0,35,0.00,,,0.00,947,weatherlink.com 1.10,2013-04-02 18:22:00,
2013-04-02 14:37:00,43.7,17.0,30.29,West,273,2.0,13.0,34,0.00,,,0.00,939,weatherlink.com 1.10,2013-04-02 18:37:00,
2013-04-02 14:52:00,44.2,15.0,30.28,NNW,344,2.0,8.0,31,0.00,,,0.00,918,weatherlink.com 1.10,2013-04-02 18:52:00,
2013-04-02 15:07:00,44.5,14.0,30.28,SSW,201,2.0,10.0,29,0.00,,,0.00,898,weatherlink.com 1.10,2013-04-02 19:07:00,
2013-04-02 15:22:00,44.0,16.0,30.27,WNW,284,7.0,10.0,32,0.00,,,0.00,882,weatherlink.com 1.10,2013-04-02 19:22:00,
2013-04-02 15:37:00,45.0,14.0,30.26,WNW,302,4.0,8.0,28,0.00,,,0.00,851,weatherlink.com 1.10,2013-04-02 19:37:00,
2013-04-02 15:53:00,45.4,13.0,30.27,South,181,2.0,9.0,27,0.00,,,0.00,821,weatherlink.com 1.10,2013-04-02 19:53:00,
2013-04-02 16:07:00,45.5,16.0,30.27,ENE,68,6.0,10.0,30,0.00,,,0.00,784,weatherlink.com 1.10,2013-04-02 20:07:00,
2013-04-02 16:22:00,46.5,15.0,30.26,NE,40,2.0,8.0,28,0.00,,,0.00,744,weatherlink.com 1.10,2013-04-02 20:22:00,
2013-04-02 16:38:00,46.0,13.0,30.26,NW,309,5.0,10.0,26,0.00,,,0.00,701,weatherlink.com 1.10,2013-04-02 20:38:00,
2013-04-02 16:55:00,45.4,13.0,30.26,West,261,6.0,11.0,27,0.00,,,0.00,652,weatherlink.com 1.10,2013-04-02 20:55:00,
2013-04-02 17:07:00,46.3,13.0,30.26,WNW,303,2.0,9.0,26,0.00,,,0.00,608,weatherlink.com 1.10,2013-04-02 21:07:00,
2013-04-02 17:22:00,45.6,16.0,30.26,WNW,298,0.0,13.0,31,0.00,,,0.00,554,weatherlink.com 1.10,2013-04-02 21:22:00,
2013-04-02 17:37:00,46.5,15.0,30.26,NNW,346,2.0,7.0,28,0.00,,,0.00,499,weatherlink.com 1.10,2013-04-02 21:37:00,
2013-04-02 17:52:00,46.2,14.0,30.26,West,274,4.0,10.0,27,0.00,,,0.00,448,weatherlink.com 1.10,2013-04-02 21:52:00,
2013-04-02 18:07:00,46.1,14.0,30.26,NW,321,2.0,7.0,27,0.00,,,0.00,388,weatherlink.com 1.10,2013-04-02 22:07:00,
2013-04-02 18:22:00,45.8,14.0,30.27,NNW,333,3.0,7.0,28,0.00,,,0.00,330,weatherlink.com 1.10,2013-04-02 22:22:00,
2013-04-02 18:37:00,45.5,15.0,30.27,NW,311,2.0,9.0,29,0.00,,,0.00,272,weatherlink.com 1.10,2013-04-02 22:37:00,
2013-04-02 18:52:00,44.5,14.0,30.27,WNW,282,2.0,9.0,29,0.00,,,0.00,206,weatherlink.com 1.10,2013-04-02 22:52:00,
2013-04-02 19:22:00,43.1,13.0,30.27,NNW,343,6.0,10.0,30,0.00,,,0.00,62,weatherlink.com 1.10,2013-04-02 23:22:00,
2013-04-02 19:37:00,42.1,14.0,30.27,NNW,343,5.0,7.0,32,0.00,,,0.00,26,weatherlink.com 1.10,2013-04-02 23:37:00,
2013-04-02 19:52:00,41.3,13.0,30.27,NNW,331,1.0,5.0,32,0.00,,,0.00,18,weatherlink.com 1.10,2013-04-02 23:52:00,
2013-04-02 20:07:00,40.6,13.0,30.27,NE,39,0.0,2.0,33,0.00,,,0.00,5,weatherlink.com 1.10,2013-04-03 00:07:00,
2013-04-02 20:22:00,39.6,13.0,30.28,NE,39,0.0,2.0,34,0.00,,,0.00,0,weatherlink.com 1.10,2013-04-03 00:22:00,
2013-04-02 20:37:00,38.6,13.0,30.28,NE,39,0.0,1.0,35,0.00,,,0.00,0,weatherlink.com 1.10,2013-04-03 00:37:00,
2013-04-02 20:52:00,37.8,13.0,30.28,NE,39,0.0,0.0,36,0.00,,,0.00,0,weatherlink.com 1.10,2013-04-03 00:52:00,
2013-04-02 21:07:00,37.3,12.0,30.29,NE,39,0.0,0.0,36,0.00,,,0.00,0,weatherlink.com 1.10,2013-04-03 01:07:00,
2013-04-02 21:22:00,36.7,13.0,30.29,NE,39,0.0,0.0,38,0.00,,,0.00,0,weatherlink.com 1.10,2013-04-03 01:22:00,
2013-04-02 21:37:00,36.4,13.0,30.30,NE,39,0.0,0.0,38,0.00,,,0.00,0,weatherlink.com 1.10,2013-04-03 01:37:00,
2013-04-02 21:52:00,36.0,12.0,30.30,NE,39,0.0,0.0,38,0.00,,,0.00,0,weatherlink.com 1.10,2013-04-03 01:52:00,
2013-04-02 22:07:00,35.8,13.0,30.31,NE,39,0.0,0.0,39,0.00,,,0.00,0,weatherlink.com 1.10,2013-04-03 02:07:00,
2013-04-02 22:22:00,35.8,12.0,30.31,NE,39,0.0,1.0,38,0.00,,,0.00,0,weatherlink.com 1.10,2013-04-03 02:22:00,
2013-04-02 22:37:00,35.8,12.0,30.31,NE,39,0.0,0.0,38,0.00,,,0.00,0,weatherlink.com 1.10,2013-04-03 02:37:00,
2013-04-02 23:08:00,34.9,12.0,30.31,NE,39,0.0,0.0,39,0.00,,,0.00,0,weatherlink.com 1.10,2013-04-03 03:08:00,
2013-04-02 23:23:00,34.5,12.0,30.32,NE,39,0.0,0.0,40,0.00,,,0.00,0,weatherlink.com 1.10,2013-04-03 03:23:00,
2013-04-02 23:38:00,34.8,13.0,30.32,NE,39,0.0,0.0,40,0.00,,,0.00,0,weatherlink.com 1.10,2013-04-03 03:38:00,
2013-04-02 23:53:00,34.3,12.0,30.32,NE,39,0.0,0.0,40,0.00,,,0.00,0,weatherlink.com 1.10,2013-04-03 03:53:00,